Hourly Weather Holubijevychi

Today, 13 April, Tuesday

Time Temperature Precipitation Wind Pressure Humidity
00:00 +9°C° 0 mm 1 mps 750 mmHg 90%
01:00 +9°C° 0 mm 1 mps 750 mmHg 90%
02:00 +8°C° 0 mm 0 mps 750 mmHg 90%
03:00 +9°C° 0 mm 1 mps 750 mmHg 90%
04:00 +9°C° 0 mm 1 mps 750 mmHg 90%
05:00 +9°C° 0 mm 1 mps 750 mmHg 90%
06:00 +9°C° 0 mm 1 mps 750 mmHg 89%
07:00 +9°C° 0 mm 1 mps 750 mmHg 88%
08:00 +10°C° 0 mm 1 mps 750 mmHg 85%
09:00 +9°C° 0 mm 2 mps 750 mmHg 82%
10:00 +10°C° 0 mm 2 mps 750 mmHg 78%
11:00 +12°C° 0 mm 2 mps 749 mmHg 75%
12:00 +12°C° 0 mm 3 mps 749 mmHg 70%
13:00 +13°C° 0 mm 3 mps 749 mmHg 65%
14:00 +14°C° 0 mm 3 mps 749 mmHg 59%
15:00 +13°C° 0 mm 3 mps 749 mmHg 62%
16:00 +13°C° 0 mm 3 mps 748 mmHg 65%
17:00 +13°C° 0 mm 2 mps 748 mmHg 68%
18:00 +12°C° 0 mm 2 mps 748 mmHg 72%
19:00 +12°C° 0 mm 2 mps 748 mmHg 76%
20:00 +10°C° 0 mm 2 mps 748 mmHg 80%
21:00 +10°C° 0 mm 2 mps 748 mmHg 82%
22:00 +9°C° 0 mm 2 mps 747 mmHg 84%
23:00 +9°C° 0 mm 2 mps 747 mmHg 86%

Tomorrow, 14 April, Wednesday

Time Temperature Precipitation Wind Pressure Humidity
00:00 +9°C° 0 mm 2 mps 747 mmHg 86%
01:00 +9°C° 0 mm 2 mps 747 mmHg 86%
02:00 +8°C° 0 mm 2 mps 747 mmHg 86%
03:00 +8°C° 0 mm 3 mps 746 mmHg 87%
04:00 +8°C° 0 mm 3 mps 746 mmHg 88%
05:00 +8°C° 0 mm 3 mps 746 mmHg 89%
06:00 +8°C° 0.1 mm 3 mps 746 mmHg 89%
07:00 +7°C° 0.1 mm 4 mps 746 mmHg 89%
08:00 +7°C° 0.1 mm 4 mps 746 mmHg 90%
09:00 +8°C° 0.1 mm 4 mps 746 mmHg 82%
10:00 +10°C° 0.1 mm 4 mps 746 mmHg 73%
11:00 +12°C° 0.1 mm 5 mps 746 mmHg 65%
12:00 +12°C° 0 mm 5 mps 746 mmHg 64%
13:00 +12°C° 0 mm 4 mps 746 mmHg 63%
14:00 +13°C° 0 mm 4 mps 745 mmHg 62%
15:00 +12°C° 0.1 mm 3 mps 745 mmHg 66%
16:00 +13°C° 0.1 mm 2 mps 745 mmHg 69%
17:00 +12°C° 0.1 mm 1 mps 745 mmHg 72%
18:00 +12°C° 0 mm 1 mps 745 mmHg 75%
19:00 +10°C° 0 mm 2 mps 745 mmHg 77%
20:00 +9°C° 0 mm 2 mps 746 mmHg 79%
21:00 +9°C° 0 mm 2 mps 746 mmHg 80%
22:00 +9°C° 0 mm 2 mps 745 mmHg 81%
23:00 +8°C° 0 mm 2 mps 745 mmHg 82%

Day after tomorrow, 15 April, Thursday

Time Temperature Precipitation Wind Pressure Humidity
00:00 +8°C° 0.1 mm 2 mps 745 mmHg 83%
01:00 +8°C° 0.1 mm 2 mps 745 mmHg 83%
02:00 +8°C° 0.1 mm 2 mps 745 mmHg 83%
03:00 +8°C° 0 mm 2 mps 745 mmHg 85%
04:00 +7°C° 0 mm 2 mps 745 mmHg 87%
05:00 +7°C° 0 mm 2 mps 745 mmHg 88%
06:00 +9°C° 0 mm 2 mps 744 mmHg 79%
07:00 +10°C° 0 mm 2 mps 745 mmHg 76%
08:00 +12°C° 0 mm 2 mps 745 mmHg 73%
09:00 +12°C° 0.2 mm 3 mps 744 mmHg 67%
10:00 +13°C° 0.2 mm 3 mps 744 mmHg 61%
11:00 +14°C° 0.2 mm 4 mps 744 mmHg 54%
12:00 +9°C° 0.3 mm 3 mps 744 mmHg 77%
13:00 +12°C° 0.3 mm 3 mps 744 mmHg 65%
14:00 +14°C° 0.3 mm 4 mps 744 mmHg 53%
15:00 +14°C° 0.2 mm 3 mps 744 mmHg 58%
16:00 +13°C° 0.2 mm 3 mps 744 mmHg 63%
17:00 +12°C° 0.2 mm 3 mps 744 mmHg 68%
18:00 +11°C° 0.1 mm 3 mps 744 mmHg 75%
19:00 +10°C° 0.1 mm 2 mps 744 mmHg 82%
20:00 +9°C° 0.1 mm 1 mps 744 mmHg 89%
21:00 +9°C° 0 mm 1 mps 744 mmHg 91%
22:00 +9°C° 0 mm 1 mps 743 mmHg 93%
23:00 +9°C° 0 mm 1 mps 743 mmHg 94%

16 April, Friday

Time Temperature Precipitation Wind Pressure Humidity
00:00 +9°C° 0 mm 1 mps 743 mmHg 95%
01:00 +9°C° 0 mm 1 mps 743 mmHg 95%
02:00 +9°C° 0 mm 1 mps 743 mmHg 95%
03:00 +9°C° 0 mm 1 mps 742 mmHg 95%
04:00 +9°C° 0 mm 1 mps 742 mmHg 96%
05:00 +8°C° 0 mm 1 mps 742 mmHg 96%
06:00 +9°C° 0.1 mm 1 mps 742 mmHg 93%
07:00 +9°C° 0.1 mm 2 mps 742 mmHg 90%
08:00 +9°C° 0.1 mm 2 mps 742 mmHg 88%
09:00 +9°C° 0.8 mm 2 mps 743 mmHg 88%
10:00 +9°C° 0.8 mm 2 mps 743 mmHg 89%
11:00 +8°C° 0.8 mm 2 mps 743 mmHg 90%
12:00 +8°C° 0.9 mm 2 mps 743 mmHg 91%
13:00 +8°C° 0.9 mm 2 mps 743 mmHg 92%
14:00 +8°C° 0.9 mm 2 mps 743 mmHg 92%
15:00 +8°C° 0.3 mm 2 mps 744 mmHg 90%
16:00 +10°C° 0.3 mm 1 mps 744 mmHg 88%
17:00 +10°C° 0.3 mm 1 mps 744 mmHg 87%
18:00 +9°C° 0.1 mm 1 mps 744 mmHg 88%
19:00 +9°C° 0.1 mm 1 mps 745 mmHg 90%
20:00 +9°C° 0.1 mm 1 mps 745 mmHg 92%
21:00 +7°C° 0 mm 2 mps 745 mmHg 93%
22:00 +7°C° 0 mm 2 mps 745 mmHg 94%
23:00 +6°C° 0 mm 2 mps 746 mmHg 95%

17 April, Saturday

Time Temperature Precipitation Wind Pressure Humidity
00:00 +6°C° 0 mm 2 mps 746 mmHg 95%
01:00 +6°C° 0 mm 2 mps 746 mmHg 95%
02:00 +5°C° 0 mm 3 mps 746 mmHg 95%
03:00 +5°C° 0 mm 3 mps 747 mmHg 95%
04:00 +5°C° 0 mm 3 mps 747 mmHg 95%
05:00 +5°C° 0 mm 3 mps 747 mmHg 96%
06:00 +5°C° 0.1 mm 3 mps 748 mmHg 94%
07:00 +5°C° 0.1 mm 3 mps 748 mmHg 93%
08:00 +5°C° 0.1 mm 3 mps 748 mmHg 92%
09:00 +5°C° 0.1 mm 3 mps 749 mmHg 89%
10:00 +5°C° 0.1 mm 3 mps 749 mmHg 86%
11:00 +7°C° 0.1 mm 3 mps 749 mmHg 84%
12:00 +6°C° 0 mm 4 mps 749 mmHg 82%
13:00 +6°C° 0 mm 4 mps 750 mmHg 80%
14:00 +7°C° 0 mm 4 mps 750 mmHg 79%
15:00 +6°C° 0 mm 4 mps 750 mmHg 81%
16:00 +6°C° 0 mm 4 mps 750 mmHg 84%
17:00 +6°C° 0 mm 4 mps 750 mmHg 86%
18:00 +5°C° 0 mm 3 mps 751 mmHg 89%
19:00 +5°C° 0 mm 3 mps 751 mmHg 91%
20:00 +5°C° 0 mm 3 mps 751 mmHg 93%
21:00 +6°C° 0 mm 2 mps 751 mmHg 94%
22:00 +6°C° 0 mm 2 mps 751 mmHg 94%
23:00 +6°C° 0 mm 2 mps 751 mmHg 95%

18 April, Sunday

Time Temperature Precipitation Wind Pressure Humidity
00:00 +5°C° 0 mm 2 mps 751 mmHg 95%
01:00 +5°C° 0 mm 2 mps 751 mmHg 95%
02:00 +5°C° 0 mm 2 mps 751 mmHg 95%
03:00 +5°C° 0 mm 2 mps 752 mmHg 95%
04:00 +5°C° 0 mm 2 mps 752 mmHg 95%
05:00 +5°C° 0 mm 2 mps 752 mmHg 95%
06:00 +6°C° 0 mm 2 mps 752 mmHg 93%
07:00 +6°C° 0 mm 2 mps 752 mmHg 91%
08:00 +5°C° 0 mm 3 mps 752 mmHg 89%
09:00 +7°C° 0 mm 3 mps 752 mmHg 84%
10:00 +8°C° 0 mm 3 mps 753 mmHg 79%
11:00 +9°C° 0 mm 3 mps 753 mmHg 74%
12:00 +10°C° 0.1 mm 3 mps 753 mmHg 70%
13:00 +11°C° 0.1 mm 4 mps 752 mmHg 66%
14:00 +11°C° 0.1 mm 4 mps 752 mmHg 62%
15:00 +11°C° 0 mm 4 mps 752 mmHg 64%
16:00 +11°C° 0 mm 4 mps 752 mmHg 65%
17:00 +11°C° 0 mm 4 mps 752 mmHg 67%
18:00 +10°C° 0 mm 4 mps 752 mmHg 71%
19:00 +9°C° 0 mm 3 mps 752 mmHg 76%
20:00 +8°C° 0 mm 3 mps 752 mmHg 80%
21:00 +8°C° 0 mm 3 mps 752 mmHg 81%
22:00 +7°C° 0 mm 2 mps 752 mmHg 83%
23:00 +7°C° 0 mm 2 mps 752 mmHg 84%
Show more